Погода в Баня-Луке

Босния и Герцеговина     44°47′26″N   17°12′20″E
темп.,
°C
ветер,
м/с
пор.,
м/с
влажн.,
%
обл.,
%
осадки,
мм/ч
давл.,
гПа
погр.,
м
22 мая, вс
вс2223:00+16св1196100 2.8 101623
02:00+15вюв2895100 5.2 1017371
05:00+14ссв019489 1.4 101611
08:00+16св129067 1.6 1016213
11:00+21св346527 0.0 1016915
14:00+23св33556 0.0 10131187
17:00+23св33614 0.0 1012874
20:00+18в228370 0.0 101214
23 мая, пн
пн2323:00+15юв1192100 0.1 101312
02:00+14ссз1197100 1.0 101312
05:00+14вюв1198100 1.5 101228
08:00+15всв1195100 1.8 1012105
11:00+19св237744 0.0 1012663
14:00+21св326760 0.0 1011806
17:00+22ссв226630 0.0 1009864
20:00+18всв118897 0.2 100815
24 мая, вт
вт2423:00+16ююв119316 0.0 100817
02:00+15ю22941 0.0 100828
05:00+14ююз229216 0.0 100825
08:00+19ю017152 0.0 1008206
11:00+26ссв125069 0.0 1008910
14:00+28ссв24465 0.0 10071407
17:00+29ююз044331 0.0 10061387
20:00+22юз117258 0.0 100811
25 мая, ср
ср2523:00+18ююз2279100 0.0 101026
02:00+16ююз228234 0.0 101130
05:00+15ююз2277100 0.0 101124
08:00+21ююз126257 0.0 1012187
11:00+27с134476 0.0 10131012
14:00+30зсз1537100 0.0 10121887
17:00+30зюз253710 0.0 10121472
20:00+22юз226324 0.0 101419
26 мая, чт
чт2623:00+18ю227394 0.0 101720
02:00+16юз2181100 0.0 101916
05:00+14з118979 0.0 102011
08:00+18с0080100 0.0 1021306
11:00+23св226328 0.0 1021858
14:00+26ссв235558 0.0 10201191
17:00+26св3360100 0.0 1019688
20:00+21в22856 0.0 101920